FW1466 Weather Reports


Display with metric or nautical units.
time (UTC)temp
F
wind
direction
speed
MPH
gust
MPH
rain 1hr
in
rain 24hr
in
rain mn
in
humidity
%
barometer
mb
20260901190008 94 49 0.0 5.0 0.00 0.02 0.00 71 1013.7
20260901184518 94 243 0.0 2.0 0.00 0.02 0.00 70 1013.7
20260901183007 93 279 0.0 3.0 0.00 0.02 0.00 73 1013.8
20260901181508 93 350 0.0 3.0 0.00 0.02 0.00 74 1013.9
20260901180003 93 42 0.0 3.0 0.00 0.02 0.00 75 1014.0
20260901174601 92 102 0.0 4.0 0.00 0.02 0.00 76 1014.0
20260901173059 91 49 1.0 5.0 0.00 0.02 0.00 74 1014.0
20260901171604 91 149 0.0 3.0 0.00 0.02 0.00 75 1014.2
20260901170056 91 139 0.0 4.0 0.00 0.02 0.00 76 1014.2
20260901164554 89 170 0.0 3.0 0.00 0.02 0.00 78 1014.3
20260901163051 89 188 0.0 4.0 0.00 0.02 0.00 77 1014.4
20260901161603 89 160 0.0 2.0 0.00 0.02 0.00 78 1014.3
20260901154541 87 259 0.0 2.0 0.00 0.02 0.00 80 1014.5
20260901153036 86 138 0.0 2.0 0.00 0.02 0.00 82 1014.4
20260901151532 85 220 0.0 3.0 0.00 0.02 0.00 82 1014.6
20260901150028 85 224 0.0 2.0 0.00 0.02 0.00 84 1014.5
20260901144525 83 178 0.0 2.0 0.00 0.02 0.00 84 1014.5
20260901143021 82 169 0.0 1.0 0.00 0.02 0.00 85 1014.5
20260901141515 81 177 0.0 2.0 0.00 0.02 0.00 87 1014.4
20260901140011 80 169 0.0 1.0 0.00 0.03 0.00 88 1014.5
20260901134507 79 169 0.0 0.0 0.00 0.03 0.00 90 1014.6
20260901133003 78 169 0.0 2.0 0.00 0.03 0.00 92 1014.6
20260901131601 77 161 0.0 0.0 0.00 0.03 0.00 95 1014.7
20260901130058 76 160 0.0 0.0 0.00 0.05 0.00 97 1014.7
20260901124557 75 160 0.0 0.0 0.00 0.05 0.00 97 1014.8
20260901123111 74 161 0.0 0.0 0.00 0.05 0.00 97 1014.7
20260901121551 74 160 0.0 0.0 0.00 0.05 0.00 98 1014.6
20260901120056 74 161 0.0 0.0 0.00 0.05 0.00 98 1014.4
20260901114548 74 161 0.0 0.0 0.00 0.05 0.00 97 1014.0
20260901113045 74 161 0.0 0.0 0.00 0.05 0.00 97 1014.1
20260901111549 74 161 0.0 0.0 0.00 0.05 0.00 97 1014.1
20260901110037 74 161 0.0 0.0 0.00 0.06 0.00 97 1013.8
20260901104539 74 161 0.0 0.0 0.00 0.06 0.00 96 1013.6
20260901103034 74 161 0.0 0.0 0.00 0.06 0.00 96 1013.5
20260901101536 75 161 0.0 0.0 0.00 0.06 0.00 96 1013.5
20260901100032 75 161 0.0 0.0 0.00 0.06 0.00 96 1013.6
20260901094532 75 161 0.0 0.0 0.00 0.06 0.00 95 1013.6
20260901093030 75 161 0.0 0.0 0.00 0.06 0.00 95 1013.7
20260901091530 75 161 0.0 0.0 0.00 0.06 0.00 95 1013.3
20260901090028 75 161 0.0 0.0 0.00 0.06 0.00 95 1013.3
20260901084528 75 161 0.0 0.0 0.00 0.06 0.00 94 1013.5
20260901083030 75 161 0.0 0.0 0.00 0.06 0.00 94 1013.2
20260901081526 76 161 0.0 0.0 0.00 0.06 0.00 93 1013.4
20260901080025 76 161 0.0 0.0 0.00 0.06 0.00 94 1013.3
20260901074525 75 164 0.0 1.0 0.00 0.06 0.00 94 1013.4
20260901073029 75 164 0.0 0.0 0.00 0.06 0.00 95 1013.2
20260901071523 75 164 0.0 0.0 0.00 0.06 0.00 95 1013.2
20260901070022 75 164 0.0 0.0 0.00 0.06 0.00 95 1013.2
20260901064525 75 164 0.0 0.0 0.00 0.06 0.00 95 1013.2
20260901063030 76 164 0.0 0.0 0.00 0.06 0.00 94 1013.2
20260901061520 76 164 0.0 0.0 0.00 0.06 0.00 94 1013.0
20260901060117 76 164 0.0 0.0 0.00 0.06 0.00 94 1013.0
20260901054516 76 164 0.0 0.0 0.00 0.06 0.00 94 1013.1
20260901053021 76 164 0.0 0.0 0.00 0.06 0.00 94 1013.1
20260901051511 76 164 0.0 0.0 0.00 0.06 0.00 94 1013.1
20260901050010 77 164 0.0 0.0 0.00 0.06 0.06 94 1013.3
20260901044510 77 164 0.0 1.0 0.00 0.06 0.06 94 1013.2
20260901043009 77 164 0.0 0.0 0.00 0.06 0.06 94 1013.4
20260901041508 77 164 0.0 0.0 0.00 0.06 0.06 93 1013.4
20260901040008 78 164 0.0 0.0 0.00 0.06 0.06 93 1013.4
20260901034507 78 164 0.0 0.0 0.00 0.06 0.06 92 1013.3
20260901033011 78 164 0.0 0.0 0.00 0.06 0.06 91 1013.4
20260901031506 79 164 0.0 0.0 0.00 0.06 0.06 91 1013.5
20260901030005 79 164 0.0 1.0 0.00 0.06 0.06 90 1013.4
20260901024506 79 165 0.0 0.0 0.00 0.06 0.06 90 1013.4
20260901023005 80 164 0.0 0.0 0.00 0.06 0.06 90 1013.6
20260901021506 80 164 0.0 1.0 0.00 0.06 0.06 89 1013.7
20260901020004 80 165 0.0 2.0 0.00 0.06 0.06 89 1013.3
20260901014505 79 130 0.0 2.0 0.00 0.06 0.06 90 1013.3
20260901013004 79 194 0.0 1.0 0.00 0.06 0.06 90 1013.1
20260901011503 80 194 0.0 0.0 0.00 0.06 0.06 88 1013.2
20260901010002 80 194 0.0 0.0 0.00 0.06 0.06 88 1013.1
20260901004502 81 194 0.0 0.0 0.00 0.06 0.06 87 1012.9
20260901003005 81 194 0.0 0.0 0.00 0.06 0.06 87 1013.2
20260901001501 82 194 0.0 0.0 0.01 0.06 0.06 86 1013.2
20260901000114 82 194 0.0 6.0 0.01 0.06 0.06 85 1012.7
20260831234605 82 146 0.0 2.0 0.01 0.06 0.06 88 1012.5
20260831233059 81 136 0.0 2.0 0.01 0.06 0.06 89 1012.1
20260831231558 82 30 0.0 0.0 0.00 0.05 0.05 88 1013.4
20260831230058 82 30 0.0 0.0 0.01 0.06 0.05 85 1013.1
20260831224557 82 30 0.0 0.0 0.01 0.06 0.05 87 1012.6
20260831223059 83 30 0.0 2.0 0.01 0.06 0.05 87 1012.6
20260831221555 85 31 0.0 0.0 0.01 0.06 0.05 80 1012.6
20260831220052 85 31 1.0 3.0 0.00 0.06 0.04 75 1012.6
20260831214554 86 126 0.0 2.0 0.00 0.06 0.04 77 1012.2
20260831213058 86 121 0.0 2.0 0.00 0.06 0.04 78 1012.3
20260831211552 88 131 0.0 4.0 0.00 0.06 0.04 75 1012.3
20260831210051 89 82 0.0 2.0 0.00 0.06 0.04 72 1012.4
20260831204549 89 81 1.0 5.0 0.00 0.06 0.04 69 1012.7
20260831203047 89 287 0.0 3.0 0.00 0.06 0.04 73 1012.8
20260831201547 89 286 1.0 5.0 0.00 0.06 0.04 71 1013.0
20260831200047 88 338 2.0 3.0 0.00 0.06 0.04 69 1013.0
20260831194615 88 40 0.0 3.0 0.00 0.06 0.04 71 1012.8
20260831193045 89 331 0.0 3.0 0.00 0.06 0.04 67 1012.7
20260831191544 89 32 1.0 4.0 0.00 0.06 0.04 69 1013.1